TimeCDT,TemperatureF,Dew PointF,Humidity,Sea Level PressureIn,VisibilityMPH,Wind Direction,Wind SpeedMPH,Gust SpeedMPH,PrecipitationIn,Events,Conditions,WindDirDegrees,DateUTC
12:13 AM,71.6,55.4,57,29.96,10.0,NE,4.6,-,N/A,,Scattered Clouds,50,2013-07-21 05:13:00
12:33 AM,70.9,55.4,58,29.96,10.0,East,4.6,-,N/A,,Clear,80,2013-07-21 05:33:00
12:53 AM,70.5,55.0,58,29.96,10.0,East,4.6,-,N/A,,Clear,80,2013-07-21 05:53:00
1:13 AM,70.0,54.5,58,29.96,10.0,East,5.8,-,N/A,,Clear,80,2013-07-21 06:13:00
1:33 AM,69.6,54.1,58,29.95,10.0,East,6.9,-,N/A,,Clear,90,2013-07-21 06:33:00
1:53 AM,68.9,51.8,54,29.95,10.0,East,8.1,-,N/A,,Clear,90,2013-07-21 06:53:00
2:13 AM,68.4,50.9,54,29.95,10.0,East,4.6,-,N/A,,Clear,100,2013-07-21 07:13:00
2:33 AM,67.6,48.6,50,29.94,10.0,ESE,3.5,-,N/A,,Clear,110,2013-07-21 07:33:00
2:53 AM,67.1,48.9,52,29.94,10.0,East,4.6,-,N/A,,Clear,80,2013-07-21 07:53:00
3:13 AM,66.6,48.0,51,29.94,10.0,ENE,4.6,-,N/A,,Clear,70,2013-07-21 08:13:00
3:33 AM,66.4,47.3,50,29.93,10.0,East,5.8,-,N/A,,Scattered Clouds,100,2013-07-21 08:33:00
3:53 AM,66.2,46.8,50,29.93,10.0,East,4.6,-,N/A,,Scattered Clouds,80,2013-07-21 08:53:00
4:13 AM,66.2,47.1,50,29.93,10.0,East,4.6,-,N/A,,Scattered Clouds,80,2013-07-21 09:13:00
4:33 AM,65.7,47.7,52,29.92,10.0,East,4.6,-,N/A,,Mostly Cloudy,80,2013-07-21 09:33:00
4:53 AM,65.3,47.5,52,29.92,10.0,ENE,5.8,-,N/A,,Scattered Clouds,70,2013-07-21 09:53:00
5:13 AM,65.3,47.5,52,29.92,10.0,ENE,5.8,-,N/A,,Mostly Cloudy,70,2013-07-21 10:13:00
5:33 AM,64.8,47.5,53,29.92,10.0,East,5.8,-,N/A,,Scattered Clouds,80,2013-07-21 10:33:00
5:53 AM,64.8,47.8,54,29.93,10.0,East,4.6,-,N/A,,Scattered Clouds,80,2013-07-21 10:53:00
6:13 AM,64.8,48.0,55,29.92,10.0,ENE,6.9,-,N/A,,Mostly Cloudy,70,2013-07-21 11:13:00
6:33 AM,64.0,49.8,60,29.94,10.0,ENE,4.6,-,N/A,,Light Drizzle,70,2013-07-21 11:33:00
6:53 AM,64.4,49.8,59,29.93,10.0,East,5.8,-,N/A,,Mostly Cloudy,90,2013-07-21 11:53:00
7:13 AM,64.8,49.6,58,29.93,10.0,East,6.9,-,N/A,,Mostly Cloudy,80,2013-07-21 12:13:00
7:33 AM,64.8,50.9,61,29.93,10.0,ENE,3.5,-,N/A,,Overcast,60,2013-07-21 12:33:00
7:53 AM,63.3,53.2,70,29.94,3.0,NNE,6.9,-,0.05,Rain,Rain,20,2013-07-21 12:53:00
8:13 AM,62.1,54.9,77,29.95,3.0,Calm,Calm,-,0.03,Rain-Thunderstorm,Thunderstorms and Rain,0,2013-07-21 13:13:00
8:33 AM,60.8,55.9,84,29.94,1.0,NE,4.6,-,0.39,Rain-Thunderstorm,Heavy Thunderstorms and Rain,40,2013-07-21 13:33:00
8:53 AM,60.6,57.2,88,29.97,4.0,Calm,Calm,-,0.50,Rain-Thunderstorm,Light Thunderstorms and Rain,0,2013-07-21 13:53:00
9:13 AM,61.0,57.4,88,29.97,4.0,West,5.8,-,0.05,Rain-Thunderstorm,Thunderstorms and Rain,280,2013-07-21 14:13:00
9:33 AM,60.8,58.1,91,29.93,2.0,East,5.8,-,0.17,Rain,Rain,100,2013-07-21 14:33:00
9:53 AM,61.2,59.2,93,29.93,10.0,Calm,Calm,-,0.18,Rain-Thunderstorm,Light Thunderstorms and Rain,0,2013-07-21 14:53:00
10:13 AM,63.0,61.2,94,29.94,10.0,SE,4.6,-,N/A,,Mostly Cloudy,130,2013-07-21 15:13:00
10:33 AM,64.2,62.2,93,29.94,10.0,ENE,4.6,-,N/A,,Mostly Cloudy,70,2013-07-21 15:33:00
10:53 AM,64.9,63.0,93,29.93,10.0,NE,4.6,-,N/A,,Scattered Clouds,50,2013-07-21 15:53:00
11:13 AM,67.1,64.8,92,29.93,10.0,ENE,3.5,-,N/A,,Scattered Clouds,60,2013-07-21 16:13:00
11:33 AM,68.9,64.4,86,29.93,10.0,ENE,4.6,-,N/A,,Mostly Cloudy,70,2013-07-21 16:33:00
11:53 AM,70.9,64.8,81,29.93,10.0,ENE,5.8,-,N/A,,Overcast,60,2013-07-21 16:53:00
12:13 PM,71.8,64.8,78,29.92,10.0,East,6.9,-,N/A,,Overcast,90,2013-07-21 17:13:00
12:33 PM,73.9,64.9,73,29.92,10.0,ESE,4.6,-,N/A,,Mostly Cloudy,110,2013-07-21 17:33:00
12:53 PM,75.0,64.8,70,29.92,10.0,South,5.8,-,N/A,,Scattered Clouds,170,2013-07-21 17:53:00
1:13 PM,74.1,63.9,70,29.91,10.0,SSE,5.8,-,N/A,,Scattered Clouds,160,2013-07-21 18:13:00
1:33 PM,75.6,64.2,68,29.90,10.0,ESE,5.8,-,N/A,,Clear,120,2013-07-21 18:33:00
1:53 PM,77.0,64.0,64,29.90,10.0,SSE,8.1,-,N/A,,Scattered Clouds,150,2013-07-21 18:53:00
2:13 PM,77.7,63.7,62,29.89,10.0,SSE,8.1,-,N/A,,Clear,160,2013-07-21 19:13:00
2:33 PM,77.9,62.6,59,29.88,10.0,SSE,5.8,-,N/A,,Clear,150,2013-07-21 19:33:00
2:53 PM,79.5,61.5,54,29.88,10.0,SE,5.8,-,N/A,,Clear,140,2013-07-21 19:53:00
3:13 PM,80.2,63.1,56,29.87,10.0,ESE,6.9,-,N/A,,Clear,110,2013-07-21 20:13:00
3:33 PM,80.8,60.6,50,29.87,10.0,SSE,3.5,-,N/A,,Clear,150,2013-07-21 20:33:00
3:53 PM,80.8,62.2,53,29.86,10.0,South,10.4,-,N/A,,Clear,170,2013-07-21 20:53:00
4:13 PM,80.6,63.5,56,29.86,10.0,SE,6.9,-,N/A,,Clear,140,2013-07-21 21:13:00
4:33 PM,80.6,65.3,59,29.85,10.0,SE,4.6,-,N/A,,Clear,130,2013-07-21 21:33:00
4:53 PM,80.4,66.7,63,29.85,10.0,SE,5.8,-,N/A,,Scattered Clouds,130,2013-07-21 21:53:00
5:13 PM,79.7,65.5,62,29.84,10.0,SSE,6.9,-,N/A,,Scattered Clouds,160,2013-07-21 22:13:00
5:33 PM,80.6,63.9,57,29.85,10.0,South,9.2,-,N/A,,Scattered Clouds,180,2013-07-21 22:33:00
5:53 PM,80.4,63.0,55,29.85,10.0,SSE,5.8,-,N/A,,Clear,160,2013-07-21 22:53:00
6:13 PM,80.1,64.2,58,29.84,10.0,SE,6.9,-,N/A,,Clear,140,2013-07-21 23:13:00
6:33 PM,79.7,64.6,60,29.84,10.0,SSE,3.5,-,N/A,,Clear,150,2013-07-21 23:33:00
6:53 PM,79.7,65.1,61,29.84,10.0,SE,5.8,-,N/A,,Clear,130,2013-07-21 23:53:00
7:13 PM,79.2,65.3,62,29.83,10.0,SE,5.8,-,N/A,,Clear,140,2013-07-22 00:13:00
7:33 PM,78.8,65.3,63,29.83,10.0,ESE,6.9,-,N/A,,Clear,120,2013-07-22 00:33:00
7:53 PM,78.1,65.5,65,29.82,10.0,SE,6.9,-,N/A,,Clear,130,2013-07-22 00:53:00
8:13 PM,77.2,65.5,67,29.82,10.0,SE,6.9,-,N/A,,Scattered Clouds,140,2013-07-22 01:13:00
8:33 PM,76.5,66.2,70,29.81,10.0,SE,3.5,-,N/A,,Scattered Clouds,140,2013-07-22 01:33:00
8:53 PM,76.1,66.6,72,29.84,10.0,SE,4.6,-,N/A,,Clear,140,2013-07-22 01:53:00
9:13 PM,75.4,66.9,75,29.84,10.0,SE,3.5,-,N/A,,Clear,130,2013-07-22 02:13:00
9:33 PM,75.0,67.1,76,29.85,10.0,SE,3.5,-,N/A,,Clear,130,2013-07-22 02:33:00
9:53 PM,74.3,67.1,78,29.85,10.0,SE,3.5,-,N/A,,Clear,140,2013-07-22 02:53:00
10:13 PM,73.8,66.7,79,29.84,10.0,SE,4.6,-,N/A,,Clear,130,2013-07-22 03:13:00
10:33 PM,73.4,66.4,79,29.84,10.0,SSE,4.6,-,N/A,,Clear,150,2013-07-22 03:33:00
10:53 PM,72.9,66.6,81,29.84,10.0,SSE,5.8,-,N/A,,Clear,150,2013-07-22 03:53:00
11:13 PM,73.0,66.0,79,29.84,10.0,SSE,8.1,-,N/A,,Clear,150,2013-07-22 04:13:00
11:33 PM,72.5,65.5,79,29.82,10.0,SSE,8.1,-,N/A,,Clear,150,2013-07-22 04:33:00
11:53 PM,72.5,65.3,78,29.82,10.0,SSE,8.1,-,N/A,,Clear,150,2013-07-22 04:53:00